Starlink 33741

operational
NORAD ID: 63365 Int'l Des: 2025-063 Owner: SPXS Country: US Constellation: starlink
LEOCIRCULAR

Starlink 33741について

説明を読み込み中...

リアルタイム位置

3D地球を読み込み中...

次回通過

高度履歴

Altitude vs Time

uPlot chart will show altitude changes over time

軌道要素

1 63365U 25063C 25258.11533736 .00031299 00000-0 78921-3 0 9994
2 63365 53.1572 149.0276 0001080 74.2974 285.8150 15.39620669 27868
Epoch: Sep 15, 2025 • Age: 25 hours

現在のステータス

高度 455.5 km
速度 7.64 km/s
衛星直下点 -27.57°S, 72.78°E
打ち上げ日 Mar 26, 2025
運用期間 0.4 years
タイプ internet

技術仕様

分類 Payload
質量 575.00 kg
乾燥質量 530.00 kg
総質量 575.00 kg
長さ 0.30 m
直径 4.10 m
スパン 29.00 m
形状 Box + pan
製造者 SPXS
バスタイプ Starlink V2MO
フェーズステータス In Orbit
所有者/国 SPXS/US

大規模コンステレーション

Loading constellations...